Weather History for St. Petersburg, FL

Change the Weather History Date:

Wednesday, December 26, 2012

  Actual Average Record
Temperature  
Mean Temperature 67 °F -  
Max Temperature 75 °F 68 °F 80 °F (1962)
Min Temperature 57 °F 53 °F 26 °F (1983)
Cooling Degree Days 2    
Growing Degree Days 17 (Base 50)    
Moisture  
Dew Point 61 °F    
Average Humidity 83    
Maximum Humidity 97    
Minimum Humidity 65    
Precipitation  
Precipitation 0.30 in - - ()
Sea Level Pressure  
Sea Level Pressure 29.88 in    
Wind  
Wind Speed 12 mph (West)    
Max Wind Speed 22 mph    
Max Gust Speed 31 mph    
Visibility 9 miles    
Events Fog , Rain    
Averages and records for this station are not official NWS values.
T = Trace of Precipitation, MM = Missing Value Source: NWS Daily Summary

Daily Weather History Graph

Daily Weather History Graph

Search for Another Location

Airport:

Trip Planner

Search our weather history database for the weather conditions in past years. The results will help you decide how hot, cold, wet, or windy it might be!

Date:

Astronomy

Dec. 26, 2012 Rise Set
Actual Time 7:19 AM EST 5:43 PM EST
Civil Twilight 6:53 AM EST 6:08 PM EST
Nautical Twilight 6:24 AM EST 6:38 PM EST
Astronomical Twilight 5:56 AM EST 7:06 PM EST
Moon 4:33 PM EST 5:44 AM EST
Length of Visible Light 11h 15m
Length of Day
10h 23m
Waxing Gibbous, 97% of the Moon is Illuminated
Dec 26
Waxing Gibbous
Dec 28
Full
Jan 4
Last Quarter
Jan 11
New
Jan 18
First Quarter

Hourly Weather History & Observations

Time (EST) Temp. Dew Point Humidity Pressure Visibility Wind Dir Wind Speed Gust Speed Precip Events Conditions
12:53 AM 64.0 °F 61.0 °F 90% 29.88 in 10.0 mi South 6.9 mph - N/A   Clear
1:53 AM 64.9 °F 61.0 °F 87% 29.90 in 10.0 mi South 9.2 mph - N/A   Overcast
2:53 AM 64.9 °F 61.0 °F 87% 29.88 in 10.0 mi South 8.1 mph - N/A   Overcast
3:53 AM 66.0 °F 62.1 °F 87% 29.87 in 10.0 mi South 10.4 mph - N/A   Overcast
4:34 AM 66.0 °F 62.1 °F 87% 29.85 in 10.0 mi SSW 12.7 mph - N/A   Overcast
4:53 AM 66.0 °F 62.1 °F 87% 29.85 in 10.0 mi South 12.7 mph - N/A   Overcast
5:23 AM 66.0 °F 63.0 °F 90% 29.83 in 10.0 mi South 15.0 mph - N/A   Scattered Clouds
5:53 AM 66.0 °F 63.0 °F 90% 29.84 in 10.0 mi South 13.8 mph - N/A   Clear
6:53 AM 64.9 °F 63.0 °F 93% 29.84 in 10.0 mi South 12.7 mph - N/A   Clear
7:36 AM 66.9 °F 66.0 °F 97% 29.82 in 10.0 mi SSW 16.1 mph - N/A   Mostly Cloudy
7:53 AM 69.1 °F 66.9 °F 93% 29.83 in 9.0 mi SSW 15.0 mph - N/A   Overcast
8:12 AM 69.1 °F 66.9 °F 93% 29.82 in 9.0 mi SSW 15.0 mph - N/A   Overcast
8:53 AM 71.1 °F 68.0 °F 90% 29.83 in 10.0 mi SSW 18.4 mph 26.5 mph N/A   Scattered Clouds
9:53 AM 72.0 °F 69.1 °F 91% 29.83 in 10.0 mi SSW 17.3 mph 27.6 mph N/A   Scattered Clouds
10:53 AM 75.9 °F 69.1 °F 79% 29.83 in 10.0 mi SW 18.4 mph 27.6 mph N/A   Partly Cloudy
11:53 AM 71.1 °F 68.0 °F 90% 29.85 in 2.0 mi West 20.7 mph 28.8 mph 0.05 in Rain Rain
11:56 AM 69.1 °F 66.0 °F 90% 29.85 in 0.8 mi WNW 16.1 mph 27.6 mph 0.13 in Rain Heavy Rain
11:59 AM 68.0 °F 66.0 °F 93% 29.85 in 0.5 mi West 11.5 mph 27.6 mph 0.20 in Fog , Rain Heavy Rain
12:08 PM 66.9 °F 64.9 °F 93% 29.85 in 1.2 mi West 11.5 mph - 0.25 in Rain Light Rain
12:12 PM 66.9 °F 64.9 °F 93% 29.85 in 4.0 mi West 10.4 mph - 0.25 in Rain Light Rain
12:53 PM 68.0 °F 66.0 °F 93% 29.84 in 6.0 mi West 10.4 mph - 0.25 in Rain Light Rain
1:53 PM 71.1 °F 62.1 °F 73% 29.84 in 10.0 mi NW 12.7 mph 20.7 mph 0.00 in   Overcast
2:53 PM 70.0 °F 60.1 °F 71% 29.84 in 10.0 mi WNW 12.7 mph 25.3 mph N/A   Overcast
3:44 PM 70.0 °F 57.9 °F 65% 29.85 in 10.0 mi WNW 11.5 mph 24.2 mph N/A   Mostly Cloudy
3:53 PM 69.1 °F 57.9 °F 68% 29.86 in 10.0 mi WNW 15.0 mph 21.9 mph N/A   Mostly Cloudy
4:53 PM 66.9 °F 57.0 °F 70% 29.87 in 10.0 mi NNW 21.9 mph 31.1 mph N/A   Overcast
5:53 PM 64.0 °F 55.0 °F 73% 29.90 in 10.0 mi NW 11.5 mph 19.6 mph N/A   Overcast
6:53 PM 63.0 °F 53.1 °F 70% 29.93 in 10.0 mi NNW 10.4 mph 18.4 mph N/A   Mostly Cloudy
7:07 PM 62.1 °F 53.1 °F 72% 29.93 in 10.0 mi NW 11.5 mph 17.3 mph N/A   Scattered Clouds
7:53 PM 62.1 °F 53.1 °F 72% 29.96 in 10.0 mi NNW 10.4 mph 21.9 mph N/A   Overcast
8:53 PM 61.0 °F 51.1 °F 70% 29.97 in 10.0 mi NNW 15.0 mph 19.6 mph N/A   Mostly Cloudy
9:01 PM 60.1 °F 51.1 °F 72% 29.98 in 10.0 mi NNW 10.4 mph 19.6 mph N/A   Partly Cloudy
9:53 PM 59.0 °F 51.1 °F 75% 29.99 in 10.0 mi NNW 8.1 mph 17.3 mph N/A   Partly Cloudy
10:53 PM 59.0 °F 50.0 °F 72% 30.01 in 10.0 mi NNW 8.1 mph - N/A   Clear
11:53 PM 57.9 °F 48.9 °F 72% 30.02 in 10.0 mi NNW 5.8 mph - N/A   Partly Cloudy